DELTA 1 R/B, 575

Orbit data source: Space-Track

DELTA 1 R/B, 575 is space debris in HEO originally from a launch on Tue, 07 May 1963 UTC launched from the Air Force Eastern Test Range (AFETR). Debris objects in space refer to the collection of defunct objects orbiting the Earth. Examples of debris include non-operational satellites, rocket bodies, and fragments generated from explosions, collisions, or faulty payload assembly.

Loading next visibility...
Identifier
575, 1963-013B
Orbit
HEO
Country
Flag of USUS
Related business
Manufacturer
ABL
Mission
Spacecraft
Bus & Motor
ALTAIR, Unknown motor
Mass
24 kg wet, 24 kg dry
Launch date (UTC)
1963-05-07 (63 years ago)
Launch vehicle
Unknown
Launch site
Air Force Eastern Test Range (AFETR)
Object type
Payload
Rocket body
Debris
Shape & HBR
Unknown
Radar Cross Section
Medium (>0.1 m² and <1 m²)

Expand to show TLE details & history
Last TLE update: 8 hours ago

TLE from 8 hours ago
0 DELTA 1 R/B
1 00575U 63013B   26062.87571896  .00000113  00000-0  21927-2 0  9995
2 00575  42.7719  36.8892 4005678  86.9567 328.1666  6.40263743469248
Epoch: 2026-03-03T21:01Z
TLE epoch observation values (Epoch: 2026-03-03T21:01:02.118Z)
Latitude
11.44054°
Longitude
-67.43875°
Altitude
2,665.611 km
Speed
7.459 km/s
True Right ascension
03h 17m 52s
True Declination
11° 23' 17"
Sunlit
Object was in daylight at epoch
Visualization orbit readout
Latitude
Unknown
Longitude
Unknown
Altitude
Unknown
Speed
Unknown
Apparent Right ascension
Unknown
Apparent Declination
Unknown
Sunlit
N/A
Visualization observer readout
Local Sidereal Time
08:28:13
Azimuth
Unknown
Elevation
Unknown
Doppler factor
Unknown
Orbital elements
Apogee altitude
10,781.893 km
Perigee altitude
966.223 km
Semi-major axis
12,252.195 km
Eccentricity
0.40057
Inclination
42.7719°
RAAN
36.8892°
Arg. of periapsis
86.9567°
True anomaly
290.01724°
Mean anomaly
328.1666°
Eccentric anomaly
310.79042°
Mean motion
1.60038 °/min
Orbital period
224.95 mins
BSTAR
0.0021927
Loading maneuver chart data...
Computing Atmospheric mass density...
Loading historical data...
Loading historical data...
Loading historical data...
Loading historical data...
Loading historical data...
Loading historical data...
Loading historical data...
Other satellites on launch #13 in the year 1963 (1963-05-07 UTC)

Documentation

Showing up to 5 results
|